Regional Weather Roundup
Issued by NWS Boston, MA

Current Version | Previous Version | Text Only | Print | Product List | Glossary Off
Versions: 1 2 3 4 5 6 7 8 9 10 11 12 13 14 15 16 17 18 19 20 21 22 23 24 25 26 27

000
ASUS41 KBOX 250010
RWRBOX

REGIONAL WEATHER ROUNDUP
NATIONAL WEATHER SERVICE TAUNTON MA
800 PM EDT SAT JUN 24 2017

NOTE:  "FAIR" INDICATES FEW OR NO CLOUDS BELOW 12,000 FEET WITH NO
SIGNIFICANT WEATHER AND/OR OBSTRUCTIONS TO VISIBILITY.

MAZALL-250100-
EASTERN MASSACHUSETTS

CITY           SKY/WX    TMP DP  RH WIND       PRES   REMARKS
BOSTON         PTCLDY    81  59  47 W15G24    29.73R
6HR MIN TEMP:  80; 6HR MAX TEMP:  88;

BEVERLY        CLEAR     80  61  52 W10G20    29.71R
LAWRENCE       CLEAR     82  59  45 W12       29.74R
BEDFORD        PTCLDY    78  57  48 W9        29.73R
BLUE HILL        N/A     75  58  55 W14G21    29.76R
NORWOOD        CLEAR     80  60  50 W8        29.74R
MARSHFIELD     CLEAR     81  63  54 VRB5      29.73R
PLYMOUTH       PTCLDY    78  60  53 W8        29.74R
TAUNTON        CLEAR     79  59  50 W6        29.74R
NEW BEDFORD    PTCLDY    78  57  48 W10       29.75R
$$

MAZALL-250100-
CAPE COD AND THE ISLANDS

CITY           SKY/WX    TMP DP  RH WIND       PRES   REMARKS
FALMOUTH       PTCLDY    79  63  57 W9        29.76R
HYANNIS        PTCLDY    80  62  54 W8        29.73R
CHATHAM        PTCLDY    74  69  85 W3        29.74R
PROVINCETOWN   PTCLDY    70  60  70 W9        29.73R
NANTUCKET      PTCLDY    69  61  75 W16       29.76R
MARTHAS VNYRD  PTCLDY    76  58  53 W8        29.76R
$$

MAZALL-250100-
CENTRAL AND WESTERN MASSACHUSETTS

CITY           SKY/WX    TMP DP  RH WIND       PRES   REMARKS
WORCESTER      CLEAR     74  49  41 W12       29.81R
6HR MIN TEMP:  74; 6HR MAX TEMP:  80;

FITCHBURG        N/A     79  55  43 W9        29.77R
ORANGE         CLEAR     76  54  46 W5        29.79R
SPRINGFIELD    CLEAR     77  55  46 NW3       29.78R
WESTFIELD      CLEAR     79  54  41 CALM      29.79R
NORTH ADAMS    MOCLDY    73  55  53 W6        29.80R
PITTSFIELD     CLEAR     72  55  55 W5        29.82R
$$

RIZALL-250100-
RHODE ISLAND

CITY           SKY/WX    TMP DP  RH WIND       PRES   REMARKS
PROVIDENCE     PTCLDY    79  56  45 W8        29.77R
6HR MIN TEMP:  79; 6HR MAX TEMP:  87;

NEWPORT        CLEAR     78  56  46 W7        29.78R
BLOCK ISLAND   CLEAR     73  59  61 W8        29.81R
WESTERLY       CLEAR     80  58  46 CALM      29.80R
$$

CTZALL-250100-
CONNECTICUT

CITY           SKY/WX    TMP DP  RH WIND       PRES   REMARKS
BRADLEY INTL   PTCLDY    79  55  43 W5        29.79R
6HR MIN TEMP:  79; 6HR MAX TEMP:  86;

HARTFORD       CLEAR     83  52  34 W7        29.78R
BRIDGEPORT     CLEAR     80  58  46 SW6       29.80R
DANBURY        CLEAR     75  58  55 SW5       29.83R
GROTON         CLEAR     79  56  45 W3        29.79R
NEW HAVEN      PTCLDY    81  55  41 VRB3      29.80R
CHESTER        FAIR      79  55  44 W3        29.82R
MERIDEN        CLEAR     74  62  66 CALM      29.80R
WILLIMANTIC    CLEAR     81  53  37 NW3       29.79R
OXFORD         CLEAR     77  54  44 NW8       29.85R
$$

MEZ002-015-021-024-NHZ003-005-008-011-012-014-VTZ005-008-250100-
NORTHERN NEW ENGLAND

CITY           SKY/WX    TMP DP  RH WIND       PRES   REMARKS
PORTLAND ME    PTCLDY    79  54  41 W7        29.68R
6HR MIN TEMP:  78; 6HR MAX TEMP:  85;

BANGOR ME      PTCLDY    75  55  49 W5        29.64R
CONCORD NH     CLEAR     80  53  39 W14       29.73R
MANCHESTER NH  PTCLDY    81  53  37 W10G16    29.72R
NASHUA NH      CLEAR     80  57  45 W8G18     29.75R
PORTSMOUTH NH  PTCLDY    79  57  45 W8        29.69R
JAFFREY NH     CLEAR     76  56  49 SW5       29.80R
KEENE NH       CLEAR     76  57  51 VRB3      29.78R
BURLINGTON VT  PTCLDY    77  49  37 W9        29.73R
MT. WASHINGTON FOG       48  46  93 W36         N/A  VSB 1/8
$$

NYZ052-076-250100-
EASTERN NEW YORK

CITY           SKY/WX    TMP DP  RH WIND       PRES   REMARKS
ALBANY         MOCLDY    75  55  49 NW8       29.80R
6HR MIN TEMP:  75; 6HR MAX TEMP:  81;

NEW YORK CITY  PTCLDY    85  56  37 W15       29.82R
6HR MIN TEMP:  82; 6HR MAX TEMP:  86;

$$

ANZALL-250100-
MARINE OBSERVATIONS

STATION/POSITION TIME  TEMP    WIND        PRES    VSBY  WAVE
                       AIR SEA DIR/SP/G                  HT/PER
                 (UTC) (F)     (DEG/KT/KT) (MB)    (MI)  (FT/S)
BOSTON BUOY      2250   67 59  260/ 10/ 10 1005.5          1/ 9
BUZZARDS BAY     2300   76     270/ 19/ 20 1007.3R
NANTUCKET SOUND  2350      67              1006.8R         1/ 3
MASS BAY-STELLWA 2304   68 60  250/  4/  6 1005.0R         2/ 8
ISLE OF SHOALS   2300   82     280/ 13/ 13 1004.7R
S OF BLOCK IS    2355      63                N/A           7/ 9
$$

......................KEY.........................
  SKY/WX - SKY CONDITION/PRESENT WEATHER
  TMP    - TEMPERATURE IN FAHRENHEIT
  DWPT   - DEWPOINT IN FAHRENHEIT
  RH     - RELATIVE HUMIDITY IN PERCENT
  WIND   - DIRECTION AND SPEED IN MPH
  PRES   - MEAN SEA LEVEL PRESSURE IN INCHES OF HG
  WCI    - WIND CHILL INDEX
  VSB    - VISIBILITY IN MILES
  HX     - HEAT INDEX
  TC     - TEMPERATURE IN CELSIUS
  VRB    - VARIABLE WIND DIRECTION
  N/A    - NOT AVAILABLE




USA.gov is the U.S. government's official web portal to all federal, state and local government web resources and services.